SCP
0 0 0 0 0 0 0 0 0 0 0 0 -0 -0 0 0 0 -0 -0 0 -0 -0 0 0 0 -0 -0 -0 -0 -0 -0 -0 -0 -0 -0 -0 -0 -0 -0 -0 -0 -0 -0 -0 0 0 0 0 0
0 0 0 0 0 0 0 0 0 0 0 0 0 0 -0 0 0 0 0 -0 -0 -1 -0 0 -0 -0 -0 -0 -0 -0 -0 -0 -0 -0 -0 -0 -0 -0 -0 -0 -0 -0 -0 -0 0 0 0 0 0
0 0 0 0 0 0 0 0 0 0 0 0 0 -0 -0 0 0 -0 -0 0 -0 -0 -0 -0 0 -0 -0 -0 -0 -0 -0 -0 -0 -0 -0 -0 -0 -0 -0 -0 -0 -0 -0 0 0 0 0 0 0
0 0 0 0 0 0 0 0 0 0 0 0 0 0 0 -0 -0 -0 0 0 -0 -0 -0 -0 0 0 -0 -0 -0 -0 -0 -0 -0 -0 -0 -0 -0 -0 -0 -0 -0 0 0 0 0 0 0 0 0
0 0 0 0 0 0 0 0 0 0 0 0 0 0 -0 -0 -0 0 0 -0 -0 -0 -0 -0 0 0 0 -0 -0 -0 -0 -0 -0 -0 -0 -0 -0 -0 -0 -0 -0 0 0 0 0 0 0 0 0
0 0 0 0 0 0 0 0 0 0 0 0 0 0 0 -0 -0 0 1 0 -0 -0 -0 0 0 0 0 -0 -0 -0 -0 -0 -0 -0 -0 -0 -0 -0 -0 0 0 0 0 0 0 0 0 0 0
0 0 0 0 0 0 0 0 0 0 0 0 0 0 0 -0 0 0 0 0 0 0 1 0 0 0 0 0 -0 -0 -0 -0 -0 -0 -0 0 0 -0 -0 0 0 0 0 0 0 0 0 0 0
0 0 0 0 0 0 0 0 0 0 0 0 0 1 0 -0 0 1 0 1 1 1 1 0 0 0 0 0 0 0 -0 -0 0 0 0 0 0 0 0 0 0 0 0 0 0 0 -0 -0 -0
0 0 0 0 0 0 0 0 0 0 0 0 0 0 0 0 1 1 1 0 1 1 1 1 0 0 0 0 0 0 0 0 0 0 0 0 0 0 0 0 0 0 0 0 0 0 0 0 -0
0 0 0 0 0 0 0 0 0 0 0 0 0 1 1 1 1 1 1 1 1 1 1 1 0 0 0 1 0 0 0 0 0 0 0 0 0 0 0 0 0 0 0 0 0 0 0 0 0
0 0 0 0 0 0 0 0 0 0 0 0 0 0 0 1 1 1 1 0 1 0 0 0 1 0 0 1 0 0 0 0 0 0 0 0 0 0 0 0 0 0 0 0 0 0 0 0 0
0 0 0 0 0 0 0 0 0 0 0 0 0 0 0 0 1 0 0 0 0 1 1 0 0 0 1 1 0 0 0 0 0 0 0 0 0 0 0 0 0 0 0 0 0 0 0 0 0
0 0 0 0 0 0 0 0 0 0 0 0 0 0 0 0 0 0 0 0 0 0 0 0 0 0 0 0 0 0 0 0 0 0 0 0 0 0 0 0 0 0 0 0 0 0 0 0 0
0 0 0 0 0 0 0 0 0 0 0 0 0 0 0 0 0 0 0 0 0 0 0 0 0 0 0 0 0 0 0 0 0 0 0 0 0 0 0 0 0 0 0 0 0 0 0 0 0
0 0 0 0 0 0 0 0 0 0 0 0 0 0 -0 0 0 0 0 0 0 0 0 0 0 0 0 0 0 0 0 0 0 0 0 0 0 0 0 0 0 0 0 0 0 0 0 0 0
0 0 0 0 0 0 0 0 0 0 0 0 0 0 0 0 0 0 0 0 0 0 0 0 0 0 0 0 0 0 0 0 0 0 0 0 0 0 0 0 0 0 0 0 0 0 0 0 0
0 0 0 0 0 0 0 0 0 0 0 0 0 0 0 0 0 0 0 0 0 0 0 0 0 0 0 0 0 0 0 0 0 0 0 0 0 0 0 0 0 0 0 0 0 0 0 0 0
0 0 0 0 0 0 0 0 0 0 0 0 0 0 0 0 0 0 0 0 0 0 0 0 0 0 0 0 0 0 0 0 0 0 0 0 0 0 0 0 0 0 0 0 0 0 0 0 0
0 0 0 0 0 0 0 0 0 0 0 0 0 0 0 0 0 0 0 0 0 0 0 0 0 0 0 0 0 0 1 0 0 0 0 0 0 0 0 0 0 0 0 0 0 0 0 0 0
0 0 0 0 0 0 0 0 0 0 0 0 0 0 0 0 0 0 0 0 0 0 0 -0 -0 -0 0 0 0 0 0 1 1 0 0 1 0 0 0 0 0 0 0 0 0 0 0 0 0
0 0 0 0 0 0 0 0 0 0 0 0 0 0 0 0 0 0 0 0 0 0 0 0 0 0 0 0 0 0 1 2 2 2 2 1 1 1 0 0 0 1 1 1 0 0 0 0 0
0 0 0 0 0 0 0 0 0 0 0 0 0 0 0 0 0 0 0 0 0 -0 0 0 0 0 0 0 0 0 0 0 1 1 1 0 1 1 1 1 1 1 1 1 1 0 0 0 0
0 0 0 0 0 0 0 0 0 0 0 0 0 0 0 0 0 0 0 0 0 0 0 0 0 0 0 0 0 0 0 1 1 0 1 1 1 1 1 2 1 1 1 1 1 0 0 0 0
0 0 0 0 0 0 0 0 0 0 0 0 0 0 0 0 0 0 0 0 0 0 0 0 0 0 0 0 0 0 0 0 0 0 0 0 0 1 1 1 1 1 1 1 1 1 0 0 0
0 0 0 0 0 0 0 0 0 0 0 0 0 0 0 0 0 0 0 0 0 0 0 0 0 0 0 0 0 0 0 -0 -0 -0 0 0 0 0 0 0 0 1 0 0 0 0 0 0 0
0 0 0 0 0 0 0 0 0 0 0 0 0 0 0 0 0 0 0 0 0 0 0 0 0 0 0 0 0 0 0 0 0 0 0 0 0 0 0 0 0 0 0 0 0 0 0 0 0
0 0 0 0 0 0 0 0 0 0 0 0 0 0 0 0 0 0 0 0 0 0 0 0 0 0 0 0 0 0 0 0 0 0 0 0 0 0 0 0 0 0 0 0 0 0 0 0 0
0 0 0 0 0 0 0 0 0 0 0 0 0 0 0 0 0 0 0 0 0 0 0 0 0 0 0 0 0 0 0 0 0 0 0 0 0 0 0 0 0 0 0 0 0 0 0 0 0
0 0 0 0 0 0 0 0 0 0 0 0 -0 0 0 0 0 0 0 0 0 0 0 0 0 0 0 0 0 0 0 0 0 0 0 0 0 0 0 0 0 0 0 0 0 0 0 0 0
0 0 0 0 0 0 0 0 0 0 0 -0 -0 0 0 0 0 0 0 0 0 0 0 0 0 0 0 0 0 0 0 0 0 0 0 0 0 0 0 0 0 0 0 0 0 0 0 0 0
Wind_Speed_500mb
20 19 19 5 5 9 6 9 4 7 12 11 14 8 10 5 8 7 14 41 58 74 71 64 57 46 38 34 31 30 34 37 34 31 32 34 35 35 32 29 26 24 24 25 24 24 24 24 25
17 13 8 1 8 6 10 8 9 4 8 32 8 18 7 8 6 4 34 54 56 69 70 65 58 49 40 34 33 30 31 34 34 34 35 36 37 33 28 25 23 22 22 23 22 22 20 20 22
16 10 4 7 7 12 11 8 1 17 29 17 13 19 18 4 8 6 17 52 60 66 67 63 58 52 43 36 32 31 30 33 34 35 36 37 36 31 26 22 21 20 21 21 21 21 18 18 18
13 6 4 8 14 8 9 9 3 12 11 5 9 17 17 18 2 13 32 48 58 65 64 61 56 50 45 39 33 30 29 31 32 35 37 37 34 29 24 22 19 18 19 20 20 21 18 16 15
16 5 4 6 13 7 8 10 6 9 11 24 24 13 13 16 9 18 31 47 53 64 63 60 54 48 44 40 35 31 29 29 32 34 37 36 35 30 24 20 18 17 17 17 18 19 19 18 18
12 7 4 10 13 9 6 15 8 8 22 26 2 14 6 15 6 23 37 49 51 61 61 59 55 48 41 37 33 29 26 27 30 32 34 35 34 28 22 18 17 16 16 15 14 16 18 18 18
14 9 11 10 21 9 10 12 4 7 14 7 9 4 7 15 8 22 55 56 54 62 62 58 53 48 43 38 34 30 27 24 24 28 31 31 30 27 22 18 16 15 14 13 12 13 15 16 16
14 9 12 11 12 12 9 11 1 6 14 18 13 3 4 12 16 33 50 50 59 60 60 58 54 49 44 41 37 33 27 23 20 21 25 27 27 24 21 17 15 13 12 11 11 10 11 11 13
15 6 10 15 16 7 9 6 1 9 10 13 16 10 3 17 24 36 52 51 61 60 59 57 55 51 46 42 39 36 33 29 25 21 23 27 29 27 25 21 17 13 11 10 10 9 9 10 12
11 10 20 12 10 11 9 2 6 10 22 8 20 23 29 28 30 41 51 55 58 58 59 56 53 49 48 44 41 40 37 32 28 26 25 26 29 29 27 24 19 15 13 11 9 7 9 10 12
13 11 12 14 19 24 7 6 6 5 2 5 17 31 27 26 32 36 43 45 51 49 49 52 50 47 45 43 43 42 39 35 31 31 30 28 31 32 31 27 23 19 16 13 10 12 12 13 15
9 16 16 25 11 13 7 8 3 10 11 12 19 36 33 33 29 28 35 43 48 50 48 49 47 44 43 43 42 41 41 39 38 36 34 33 32 32 32 30 26 22 20 18 17 19 18 17 17
12 8 31 24 34 25 15 5 3 5 21 16 22 32 32 31 32 29 25 31 42 49 48 49 47 45 41 41 39 39 39 41 38 39 36 33 32 32 32 31 30 27 25 19 17 16 14 12 14
17 24 12 36 38 15 7 7 10 10 28 23 23 25 25 30 32 33 31 27 29 38 43 45 48 44 42 40 36 36 40 40 39 37 34 33 32 32 33 32 32 29 27 26 23 18 18 17 21
15 11 13 29 13 8 15 18 13 24 25 24 25 24 21 22 33 28 20 18 19 20 30 40 40 41 41 39 38 38 39 39 37 35 33 32 32 31 32 33 33 28 26 26 29 27 26 25 26
15 2 10 9 23 14 18 22 12 43 40 28 27 27 21 15 6 15 27 39 36 35 22 16 34 32 38 43 47 44 41 42 38 36 33 31 33 32 31 34 32 26 27 28 30 33 35 33 33
8 9 10 5 21 17 21 6 18 47 43 31 32 30 24 16 9 8 16 20 34 47 45 46 38 39 39 53 55 49 42 51 50 46 41 37 39 37 34 32 31 28 30 33 32 34 38 38 39
11 13 7 13 13 22 11 8 2 24 42 46 40 37 33 24 21 10 13 7 18 38 44 47 51 53 67 65 61 62 57 67 61 45 40 33 34 34 36 33 31 29 36 37 30 33 35 41 43
13 18 16 12 10 13 17 13 19 29 24 34 40 36 36 30 18 20 18 14 8 20 34 57 59 55 64 61 56 66 74 70 59 45 32 37 38 36 36 36 37 32 39 44 35 37 44 48 49
8 16 13 7 10 6 10 12 19 18 16 45 50 48 44 36 28 25 25 23 15 15 22 46 62 63 73 85 83 72 70 66 46 41 42 38 33 37 42 35 37 36 42 49 43 42 47 49 52
6 12 12 13 9 2 6 7 9 10 21 27 38 42 43 41 38 32 29 35 44 42 37 43 52 54 56 63 66 71 57 50 45 42 34 25 37 37 39 43 34 40 39 49 49 47 51 52 53
22 16 9 15 10 7 4 8 7 12 16 14 41 43 46 48 46 43 41 44 57 56 48 53 56 56 50 54 45 53 51 49 48 40 40 37 26 26 21 26 30 32 41 51 49 47 53 54 58
11 22 11 6 11 9 2 4 11 3 7 16 27 54 59 60 59 58 56 52 63 64 53 50 60 60 57 60 56 58 60 53 43 39 38 31 32 34 36 42 38 41 51 62 59 52 53 53 51
25 18 10 11 7 2 10 10 9 6 13 8 14 45 56 58 60 63 63 61 62 61 54 60 48 61 62 58 61 64 75 57 41 46 52 53 47 47 49 48 52 53 63 68 67 57 56 56 52
13 29 6 3 2 10 12 8 15 11 14 14 18 48 49 48 49 59 69 73 70 58 59 61 66 59 61 52 48 47 55 64 45 52 54 56 57 57 50 55 52 57 66 59 59 59 58 61 59
22 13 11 13 11 9 11 9 9 7 11 16 44 50 42 34 32 51 55 66 72 59 59 53 61 57 46 40 29 26 36 42 38 40 43 45 52 49 45 54 54 52 50 52 56 58 61 64 59
20 15 13 14 3 10 7 10 10 11 12 22 31 4 19 17 25 31 41 44 47 44 39 32 39 35 26 17 12 13 13 20 23 24 25 23 21 23 24 32 36 40 46 57 64 61 66 68 68
26 17 3 7 9 7 3 4 7 15 24 26 17 10 29 37 40 43 43 39 33 34 33 31 34 33 28 24 17 10 16 20 12 10 12 15 16 20 24 29 31 34 36 37 37 39 44 55 47
18 17 8 11 7 9 7 8 9 12 19 22 6 22 42 58 58 55 56 60 64 66 61 60 47 33 21 6 10 9 16 14 11 7 9 14 18 21 25 29 32 35 36 36 35 35 34 42 43
11 16 11 10 2 6 8 7 4 13 16 6 27 37 42 66 71 74 74 74 73 57 38 34 36 27 19 25 25 18 18 16 14 14 15 18 22 25 27 30 34 36 37 38 39 39 40 40 41
Wind_Direction_500mb
279 294 308 304 57 60 269 255 281 281 1 345 289 232 237 240 168 213 146 164 168 169 168 167 165 166 165 166 165 161 166 169 172 172 164 154 151 147 144 136 131 128 129 129 130 129 125 122 119
264 278 285 204 110 118 261 261 195 300 316 331 298 309 261 244 211 134 152 161 168 172 170 170 168 168 168 169 167 162 162 164 165 162 158 155 152 151 148 140 134 132 132 132 136 136 130 123 126
237 263 231 123 141 178 206 213 63 329 319 321 322 325 297 351 127 116 177 164 172 174 174 173 171 172 173 175 171 162 159 162 162 160 158 156 155 155 153 145 139 138 137 137 144 148 141 136 135
201 190 101 116 228 244 197 196 311 330 316 59 280 285 272 285 332 177 175 169 175 176 176 176 176 177 178 178 175 166 159 163 163 162 161 160 161 163 160 151 147 145 142 141 150 157 159 154 158
187 171 119 166 247 200 255 274 333 319 287 296 290 269 254 343 292 167 171 171 180 179 179 178 179 182 183 182 181 174 163 163 167 168 166 167 167 167 163 157 154 148 144 143 152 161 170 173 175
155 137 118 195 249 164 207 241 312 294 298 312 291 284 311 316 282 170 175 176 180 182 183 181 180 182 187 188 186 181 175 168 172 175 174 174 173 169 166 162 155 151 150 148 153 162 171 177 182
145 114 199 187 233 263 178 210 199 260 285 284 286 222 295 354 175 167 178 180 180 184 184 184 183 183 185 191 194 193 190 182 178 183 183 182 179 174 174 169 158 155 157 157 160 165 171 179 184
168 112 171 208 193 250 178 176 269 284 281 311 336 310 353 358 168 178 175 179 178 183 186 188 188 189 190 192 192 195 199 198 193 192 194 196 191 188 188 181 168 162 164 171 179 183 179 179 188
172 114 199 203 176 222 168 129 100 347 328 45 25 20 314 166 168 174 171 178 176 183 188 191 192 192 194 197 196 195 198 201 204 206 205 207 205 199 199 193 187 178 180 185 196 200 196 200 207
163 180 200 193 185 209 202 150 5 27 10 44 79 99 133 149 159 165 168 171 177 182 189 192 196 197 197 200 201 200 203 206 210 216 219 218 218 213 208 206 203 198 200 205 213 220 221 223 226
177 199 173 204 204 239 251 349 297 15 3 14 136 121 128 149 160 160 163 174 184 194 197 196 200 206 208 208 209 208 210 214 219 224 225 225 224 222 219 216 215 215 222 226 229 235 237 236 242
170 203 177 215 186 219 265 328 47 195 170 113 145 138 128 130 141 167 170 174 182 191 198 202 203 206 209 214 215 214 217 220 225 229 230 228 229 227 224 225 228 228 236 237 240 239 244 248 248
193 180 202 218 230 225 250 210 129 80 140 122 115 164 144 132 131 134 161 171 181 186 197 201 204 208 211 215 216 218 224 226 229 231 232 232 233 232 232 229 232 237 237 236 228 233 232 250 258
198 183 184 210 224 233 180 220 219 224 178 154 130 132 175 172 144 142 140 157 189 187 192 205 208 212 213 214 218 222 228 229 231 234 237 236 235 236 235 233 236 239 240 235 240 255 255 253 260
114 109 216 232 183 215 170 258 203 184 175 163 150 134 128 171 195 215 201 194 171 171 203 209 207 218 224 226 224 228 234 235 233 237 237 239 242 242 241 239 238 239 243 242 242 254 264 271 273
157 109 162 243 188 205 169 242 172 186 173 164 168 160 156 154 192 219 227 232 224 224 191 162 189 211 231 234 232 229 236 238 234 229 233 238 240 239 241 246 242 242 242 247 255 259 263 272 276
214 165 161 225 206 185 180 131 180 175 176 177 173 176 182 190 193 232 250 236 227 221 217 212 215 217 243 244 235 234 240 237 229 228 223 228 238 240 239 241 243 237 245 249 257 267 273 273 274
152 118 142 177 202 202 153 167 97 187 190 195 200 193 199 214 214 211 257 247 251 230 227 211 214 223 213 219 229 231 235 233 230 229 222 220 224 234 239 241 241 243 247 251 263 276 286 283 279
142 137 137 215 220 141 208 166 220 239 200 191 199 198 201 216 237 230 239 247 283 238 240 222 224 230 220 217 235 233 229 231 239 239 234 228 236 244 255 267 263 262 269 264 262 274 280 283 285
137 148 178 203 225 132 158 199 226 219 212 202 203 212 212 212 222 238 230 233 255 286 250 229 225 232 234 243 251 238 242 238 242 236 243 240 255 267 266 269 278 274 281 277 265 273 279 285 285
151 140 157 168 122 70 112 288 202 236 224 226 220 224 221 214 212 225 245 246 255 262 272 248 238 240 242 243 245 238 233 226 234 249 252 270 279 275 276 269 273 279 285 293 283 278 278 284 287
182 195 149 130 105 171 71 258 246 210 214 224 234 229 223 223 220 224 233 233 241 250 253 255 245 240 238 242 235 221 233 235 241 255 276 288 294 285 300 289 282 277 280 273 275 273 277 282 283
183 168 178 109 97 114 334 83 276 135 233 230 233 234 234 233 230 224 227 234 228 233 233 244 250 241 236 236 234 237 240 243 249 266 276 276 281 276 284 290 280 276 274 277 278 271 273 275 281
152 128 53 48 83 297 212 140 290 215 216 248 226 240 246 241 241 239 232 230 225 227 223 237 245 234 245 246 252 244 235 244 266 291 291 274 277 280 278 282 283 277 267 270 273 272 272 268 266
134 142 101 50 204 211 182 116 238 251 263 236 269 274 264 250 253 236 224 220 217 221 222 224 236 232 240 245 249 244 239 244 270 293 289 289 293 283 277 278 280 272 271 264 267 269 272 269 267
182 143 144 161 163 172 137 206 235 205 303 288 285 284 256 239 244 234 223 206 216 220 224 240 242 235 236 234 246 248 248 250 278 278 286 290 285 288 275 273 275 275 269 266 265 266 267 266 269
194 194 164 106 54 93 200 280 317 323 319 311 314 275 201 215 198 201 207 212 213 215 223 223 215 209 217 214 213 215 226 246 260 281 293 300 303 298 301 293 293 291 284 276 269 269 266 271 273
181 157 114 6 124 134 299 248 229 339 315 316 329 67 121 137 154 166 169 175 168 161 155 154 159 151 155 152 149 170 231 233 231 289 322 329 319 318 318 316 319 321 316 310 304 294 274 263 260
139 172 69 112 95 140 132 262 218 270 286 301 111 102 116 132 139 140 132 125 122 121 122 119 116 114 97 97 71 102 90 59 49 20 340 322 322 319 320 318 315 311 310 308 307 304 294 278 274
146 163 123 117 158 69 123 283 288 293 294 112 107 109 119 134 134 128 123 119 109 85 93 92 94 107 117 106 107 69 49 36 21 5 350 333 324 315 309 305 307 309 307 306 304 301 296 290 284
Wind_Speed_850mb
20 19 19 5 5 9 6 9 4 7 12 11 14 8 10 5 8 7 14 41 58 74 71 64 57 46 38 34 31 30 34 37 34 31 32 34 35 35 32 29 26 24 24 25 24 24 24 24 25
17 13 8 1 8 6 10 8 9 4 8 32 8 18 7 8 6 4 34 54 56 69 70 65 58 49 40 34 33 30 31 34 34 34 35 36 37 33 28 25 23 22 22 23 22 22 20 20 22
16 10 4 7 7 12 11 8 1 17 29 17 13 19 18 4 8 6 17 52 60 66 67 63 58 52 43 36 32 31 30 33 34 35 36 37 36 31 26 22 21 20 21 21 21 21 18 18 18
13 6 4 8 14 8 9 9 3 12 11 5 9 17 17 18 2 13 32 48 58 65 64 61 56 50 45 39 33 30 29 31 32 35 37 37 34 29 24 22 19 18 19 20 20 21 18 16 15
16 5 4 6 13 7 8 10 6 9 11 24 24 13 13 16 9 18 31 47 53 64 63 60 54 48 44 40 35 31 29 29 32 34 37 36 35 30 24 20 18 17 17 17 18 19 19 18 18
12 7 4 10 13 9 6 15 8 8 22 26 2 14 6 15 6 23 37 49 51 61 61 59 55 48 41 37 33 29 26 27 30 32 34 35 34 28 22 18 17 16 16 15 14 16 18 18 18
14 9 11 10 21 9 10 12 4 7 14 7 9 4 7 15 8 22 55 56 54 62 62 58 53 48 43 38 34 30 27 24 24 28 31 31 30 27 22 18 16 15 14 13 12 13 15 16 16
14 9 12 11 12 12 9 11 1 6 14 18 13 3 4 12 16 33 50 50 59 60 60 58 54 49 44 41 37 33 27 23 20 21 25 27 27 24 21 17 15 13 12 11 11 10 11 11 13
15 6 10 15 16 7 9 6 1 9 10 13 16 10 3 17 24 36 52 51 61 60 59 57 55 51 46 42 39 36 33 29 25 21 23 27 29 27 25 21 17 13 11 10 10 9 9 10 12
11 10 20 12 10 11 9 2 6 10 22 8 20 23 29 28 30 41 51 55 58 58 59 56 53 49 48 44 41 40 37 32 28 26 25 26 29 29 27 24 19 15 13 11 9 7 9 10 12
13 11 12 14 19 24 7 6 6 5 2 5 17 31 27 26 32 36 43 45 51 49 49 52 50 47 45 43 43 42 39 35 31 31 30 28 31 32 31 27 23 19 16 13 10 12 12 13 15
9 16 16 25 11 13 7 8 3 10 11 12 19 36 33 33 29 28 35 43 48 50 48 49 47 44 43 43 42 41 41 39 38 36 34 33 32 32 32 30 26 22 20 18 17 19 18 17 17
12 8 31 24 34 25 15 5 3 5 21 16 22 32 32 31 32 29 25 31 42 49 48 49 47 45 41 41 39 39 39 41 38 39 36 33 32 32 32 31 30 27 25 19 17 16 14 12 14
17 24 12 36 38 15 7 7 10 10 28 23 23 25 25 30 32 33 31 27 29 38 43 45 48 44 42 40 36 36 40 40 39 37 34 33 32 32 33 32 32 29 27 26 23 18 18 17 21
15 11 13 29 13 8 15 18 13 24 25 24 25 24 21 22 33 28 20 18 19 20 30 40 40 41 41 39 38 38 39 39 37 35 33 32 32 31 32 33 33 28 26 26 29 27 26 25 26
15 2 10 9 23 14 18 22 12 43 40 28 27 27 21 15 6 15 27 39 36 35 22 16 34 32 38 43 47 44 41 42 38 36 33 31 33 32 31 34 32 26 27 28 30 33 35 33 33
8 9 10 5 21 17 21 6 18 47 43 31 32 30 24 16 9 8 16 20 34 47 45 46 38 39 39 53 55 49 42 51 50 46 41 37 39 37 34 32 31 28 30 33 32 34 38 38 39
11 13 7 13 13 22 11 8 2 24 42 46 40 37 33 24 21 10 13 7 18 38 44 47 51 53 67 65 61 62 57 67 61 45 40 33 34 34 36 33 31 29 36 37 30 33 35 41 43
13 18 16 12 10 13 17 13 19 29 24 34 40 36 36 30 18 20 18 14 8 20 34 57 59 55 64 61 56 66 74 70 59 45 32 37 38 36 36 36 37 32 39 44 35 37 44 48 49
8 16 13 7 10 6 10 12 19 18 16 45 50 48 44 36 28 25 25 23 15 15 22 46 62 63 73 85 83 72 70 66 46 41 42 38 33 37 42 35 37 36 42 49 43 42 47 49 52
6 12 12 13 9 2 6 7 9 10 21 27 38 42 43 41 38 32 29 35 44 42 37 43 52 54 56 63 66 71 57 50 45 42 34 25 37 37 39 43 34 40 39 49 49 47 51 52 53
22 16 9 15 10 7 4 8 7 12 16 14 41 43 46 48 46 43 41 44 57 56 48 53 56 56 50 54 45 53 51 49 48 40 40 37 26 26 21 26 30 32 41 51 49 47 53 54 58
11 22 11 6 11 9 2 4 11 3 7 16 27 54 59 60 59 58 56 52 63 64 53 50 60 60 57 60 56 58 60 53 43 39 38 31 32 34 36 42 38 41 51 62 59 52 53 53 51
25 18 10 11 7 2 10 10 9 6 13 8 14 45 56 58 60 63 63 61 62 61 54 60 48 61 62 58 61 64 75 57 41 46 52 53 47 47 49 48 52 53 63 68 67 57 56 56 52
13 29 6 3 2 10 12 8 15 11 14 14 18 48 49 48 49 59 69 73 70 58 59 61 66 59 61 52 48 47 55 64 45 52 54 56 57 57 50 55 52 57 66 59 59 59 58 61 59
22 13 11 13 11 9 11 9 9 7 11 16 44 50 42 34 32 51 55 66 72 59 59 53 61 57 46 40 29 26 36 42 38 40 43 45 52 49 45 54 54 52 50 52 56 58 61 64 59
20 15 13 14 3 10 7 10 10 11 12 22 31 4 19 17 25 31 41 44 47 44 39 32 39 35 26 17 12 13 13 20 23 24 25 23 21 23 24 32 36 40 46 57 64 61 66 68 68
26 17 3 7 9 7 3 4 7 15 24 26 17 10 29 37 40 43 43 39 33 34 33 31 34 33 28 24 17 10 16 20 12 10 12 15 16 20 24 29 31 34 36 37 37 39 44 55 47
18 17 8 11 7 9 7 8 9 12 19 22 6 22 42 58 58 55 56 60 64 66 61 60 47 33 21 6 10 9 16 14 11 7 9 14 18 21 25 29 32 35 36 36 35 35 34 42 43
11 16 11 10 2 6 8 7 4 13 16 6 27 37 42 66 71 74 74 74 73 57 38 34 36 27 19 25 25 18 18 16 14 14 15 18 22 25 27 30 34 36 37 38 39 39 40 40 41
Wind_Direction_850mb
279 294 308 304 57 60 269 255 281 281 1 345 289 232 237 240 168 213 146 164 168 169 168 167 165 166 165 166 165 161 166 169 172 172 164 154 151 147 144 136 131 128 129 129 130 129 125 122 119
264 278 285 204 110 118 261 261 195 300 316 331 298 309 261 244 211 134 152 161 168 172 170 170 168 168 168 169 167 162 162 164 165 162 158 155 152 151 148 140 134 132 132 132 136 136 130 123 126
237 263 231 123 141 178 206 213 63 329 319 321 322 325 297 351 127 116 177 164 172 174 174 173 171 172 173 175 171 162 159 162 162 160 158 156 155 155 153 145 139 138 137 137 144 148 141 136 135
201 190 101 116 228 244 197 196 311 330 316 59 280 285 272 285 332 177 175 169 175 176 176 176 176 177 178 178 175 166 159 163 163 162 161 160 161 163 160 151 147 145 142 141 150 157 159 154 158
187 171 119 166 247 200 255 274 333 319 287 296 290 269 254 343 292 167 171 171 180 179 179 178 179 182 183 182 181 174 163 163 167 168 166 167 167 167 163 157 154 148 144 143 152 161 170 173 175
155 137 118 195 249 164 207 241 312 294 298 312 291 284 311 316 282 170 175 176 180 182 183 181 180 182 187 188 186 181 175 168 172 175 174 174 173 169 166 162 155 151 150 148 153 162 171 177 182
145 114 199 187 233 263 178 210 199 260 285 284 286 222 295 354 175 167 178 180 180 184 184 184 183 183 185 191 194 193 190 182 178 183 183 182 179 174 174 169 158 155 157 157 160 165 171 179 184
168 112 171 208 193 250 178 176 269 284 281 311 336 310 353 358 168 178 175 179 178 183 186 188 188 189 190 192 192 195 199 198 193 192 194 196 191 188 188 181 168 162 164 171 179 183 179 179 188
172 114 199 203 176 222 168 129 100 347 328 45 25 20 314 166 168 174 171 178 176 183 188 191 192 192 194 197 196 195 198 201 204 206 205 207 205 199 199 193 187 178 180 185 196 200 196 200 207
163 180 200 193 185 209 202 150 5 27 10 44 79 99 133 149 159 165 168 171 177 182 189 192 196 197 197 200 201 200 203 206 210 216 219 218 218 213 208 206 203 198 200 205 213 220 221 223 226
177 199 173 204 204 239 251 349 297 15 3 14 136 121 128 149 160 160 163 174 184 194 197 196 200 206 208 208 209 208 210 214 219 224 225 225 224 222 219 216 215 215 222 226 229 235 237 236 242
170 203 177 215 186 219 265 328 47 195 170 113 145 138 128 130 141 167 170 174 182 191 198 202 203 206 209 214 215 214 217 220 225 229 230 228 229 227 224 225 228 228 236 237 240 239 244 248 248
193 180 202 218 230 225 250 210 129 80 140 122 115 164 144 132 131 134 161 171 181 186 197 201 204 208 211 215 216 218 224 226 229 231 232 232 233 232 232 229 232 237 237 236 228 233 232 250 258
198 183 184 210 224 233 180 220 219 224 178 154 130 132 175 172 144 142 140 157 189 187 192 205 208 212 213 214 218 222 228 229 231 234 237 236 235 236 235 233 236 239 240 235 240 255 255 253 260
114 109 216 232 183 215 170 258 203 184 175 163 150 134 128 171 195 215 201 194 171 171 203 209 207 218 224 226 224 228 234 235 233 237 237 239 242 242 241 239 238 239 243 242 242 254 264 271 273
157 109 162 243 188 205 169 242 172 186 173 164 168 160 156 154 192 219 227 232 224 224 191 162 189 211 231 234 232 229 236 238 234 229 233 238 240 239 241 246 242 242 242 247 255 259 263 272 276
214 165 161 225 206 185 180 131 180 175 176 177 173 176 182 190 193 232 250 236 227 221 217 212 215 217 243 244 235 234 240 237 229 228 223 228 238 240 239 241 243 237 245 249 257 267 273 273 274
152 118 142 177 202 202 153 167 97 187 190 195 200 193 199 214 214 211 257 247 251 230 227 211 214 223 213 219 229 231 235 233 230 229 222 220 224 234 239 241 241 243 247 251 263 276 286 283 279
142 137 137 215 220 141 208 166 220 239 200 191 199 198 201 216 237 230 239 247 283 238 240 222 224 230 220 217 235 233 229 231 239 239 234 228 236 244 255 267 263 262 269 264 262 274 280 283 285
137 148 178 203 225 132 158 199 226 219 212 202 203 212 212 212 222 238 230 233 255 286 250 229 225 232 234 243 251 238 242 238 242 236 243 240 255 267 266 269 278 274 281 277 265 273 279 285 285
151 140 157 168 122 70 112 288 202 236 224 226 220 224 221 214 212 225 245 246 255 262 272 248 238 240 242 243 245 238 233 226 234 249 252 270 279 275 276 269 273 279 285 293 283 278 278 284 287
182 195 149 130 105 171 71 258 246 210 214 224 234 229 223 223 220 224 233 233 241 250 253 255 245 240 238 242 235 221 233 235 241 255 276 288 294 285 300 289 282 277 280 273 275 273 277 282 283
183 168 178 109 97 114 334 83 276 135 233 230 233 234 234 233 230 224 227 234 228 233 233 244 250 241 236 236 234 237 240 243 249 266 276 276 281 276 284 290 280 276 274 277 278 271 273 275 281
152 128 53 48 83 297 212 140 290 215 216 248 226 240 246 241 241 239 232 230 225 227 223 237 245 234 245 246 252 244 235 244 266 291 291 274 277 280 278 282 283 277 267 270 273 272 272 268 266
134 142 101 50 204 211 182 116 238 251 263 236 269 274 264 250 253 236 224 220 217 221 222 224 236 232 240 245 249 244 239 244 270 293 289 289 293 283 277 278 280 272 271 264 267 269 272 269 267
182 143 144 161 163 172 137 206 235 205 303 288 285 284 256 239 244 234 223 206 216 220 224 240 242 235 236 234 246 248 248 250 278 278 286 290 285 288 275 273 275 275 269 266 265 266 267 266 269
194 194 164 106 54 93 200 280 317 323 319 311 314 275 201 215 198 201 207 212 213 215 223 223 215 209 217 214 213 215 226 246 260 281 293 300 303 298 301 293 293 291 284 276 269 269 266 271 273
181 157 114 6 124 134 299 248 229 339 315 316 329 67 121 137 154 166 169 175 168 161 155 154 159 151 155 152 149 170 231 233 231 289 322 329 319 318 318 316 319 321 316 310 304 294 274 263 260
139 172 69 112 95 140 132 262 218 270 286 301 111 102 116 132 139 140 132 125 122 121 122 119 116 114 97 97 71 102 90 59 49 20 340 322 322 319 320 318 315 311 310 308 307 304 294 278 274
146 163 123 117 158 69 123 283 288 293 294 112 107 109 119 134 134 128 123 119 109 85 93 92 94 107 117 106 107 69 49 36 21 5 350 333 324 315 309 305 307 309 307 306 304 301 296 290 284